Jaffrey, NH

7:45 PM EDT on May 26, 2017 (GMT -0400)
Jaffrey Airport-Silver Ranch

Weather History for KAFN - August, 2013

Change the Weather History Date:

Sunday, August 18, 2013

  Actual Average Record
Temperature  
Mean Temperature 66 °F -  
Max Temperature 78 °F 76 °F 89 °F (2002)
Min Temperature 54 °F 55 °F 48 °F (2005)
Growing Degree Days 16 (Base 50)    
Moisture  
Dew Point 56 °F    
Average Humidity 75    
Maximum Humidity 93    
Minimum Humidity 42    
Precipitation  
Precipitation 0.00 in - - ()
Sea Level Pressure  
Sea Level Pressure 30.24 in    
Wind  
Wind Speed 1 mph (SSW)    
Max Wind Speed 7 mph    
Max Gust Speed -    
Visibility 9 miles    
Events      
Averages and records for this station are not official NWS values.
T = Trace of Precipitation, MM = Missing Value Source: NWS Daily Summary

Daily Weather History Graph

Daily Weather History Graph

Search for Another Location

Airport or City:

Trip Planner

Search our weather history database for the weather conditions in past years. The results will help you decide how hot, cold, wet, or windy it might be!

Date:

Astronomy

Aug. 18, 2013 Rise Set
Actual Time 5:57 AM EDT 7:45 PM EDT
Civil Twilight 5:27 AM EDT 8:15 PM EDT
Nautical Twilight 4:50 AM EDT 8:51 PM EDT
Astronomical Twilight 4:10 AM EDT 9:31 PM EDT
Moon 5:50 PM EDT (8/18) 3:01 AM EDT (8/18)
Length of Visible Light 14h 47m
Length of Day
13h 47m
Waxing Gibbous, 92% of the Moon is Illuminated
Aug 18
Waxing Gibbous
Aug 20
Full
Aug 28
Last Quarter
Sep 5
New
Sep 12
First Quarter

Hourly Weather History & Observations

Time (EDT) Temp. Dew Point Humidity Pressure Visibility Wind Dir Wind Speed Gust Speed Precip Events Conditions
12:52 AM 57.0 °F 55.0 °F 93% 30.31 in 9.0 mi Calm Calm - N/A   Clear
1:52 AM 55.9 °F 54.0 °F 93% 30.30 in 9.0 mi Calm Calm - N/A   Clear
2:52 AM 55.9 °F 54.0 °F 93% 30.31 in 8.0 mi Calm Calm - N/A   Clear
3:52 AM 55.0 °F 53.1 °F 93% 30.31 in 9.0 mi Calm Calm - N/A   Clear
4:52 AM 54.0 °F 52.0 °F 93% 30.30 in 8.0 mi Calm Calm - N/A   Clear
5:52 AM 55.0 °F 53.1 °F 93% 30.30 in 8.0 mi Calm Calm - N/A   Clear
6:52 AM 55.0 °F 53.1 °F 93% 30.31 in 8.0 mi Calm Calm - N/A   Clear
7:52 AM 61.0 °F 57.9 °F 90% 30.31 in 10.0 mi Calm Calm - N/A   Clear
8:52 AM 66.9 °F 57.9 °F 73% 30.30 in 10.0 mi Calm Calm - N/A   Clear
9:52 AM 73.0 °F 55.9 °F 55% 30.29 in 10.0 mi Calm Calm - N/A   Clear
10:52 AM 75.9 °F 52.0 °F 43% 30.29 in 10.0 mi Variable 5.8 mph - N/A   Clear
11:52 AM 75.9 °F 53.1 °F 45% 30.28 in 10.0 mi WSW 3.5 mph - N/A   Clear
12:52 PM 77.0 °F 52.0 °F 42% 30.27 in 10.0 mi Calm Calm - N/A   Partly Cloudy
1:52 PM 75.0 °F 54.0 °F 48% 30.25 in 10.0 mi West 3.5 mph - N/A   Overcast
2:52 PM 73.0 °F 55.0 °F 53% 30.24 in 10.0 mi Variable 6.9 mph - N/A   Mostly Cloudy
3:52 PM 73.0 °F 57.0 °F 57% 30.21 in 10.0 mi SSW 4.6 mph - N/A   Partly Cloudy
4:52 PM 72.0 °F 57.0 °F 59% 30.19 in 10.0 mi Calm Calm - N/A   Partly Cloudy
5:52 PM 72.0 °F 59.0 °F 64% 30.18 in 10.0 mi SSW 5.8 mph - N/A   Clear
6:52 PM 70.0 °F 60.1 °F 71% 30.18 in 10.0 mi Calm Calm - N/A   Clear
7:52 PM 66.0 °F 61.0 °F 84% 30.17 in 10.0 mi Calm Calm - N/A   Clear
8:52 PM 64.0 °F 61.0 °F 90% 30.16 in 10.0 mi Calm Calm - N/A   Clear
9:52 PM 62.1 °F 60.1 °F 93% 30.15 in 10.0 mi Calm Calm - N/A   Clear
10:52 PM 61.0 °F 59.0 °F 93% 30.14 in 7.0 mi South 3.5 mph - N/A   Clear
11:52 PM 61.0 °F 59.0 °F 93% 30.13 in 7.0 mi South 3.5 mph - N/A   Clear